Showing default

HULIANWANG DIGUI-84, 65819

Orbit data source: Space-Track

HULIANWANG DIGUI-84, 65819 is a payload satellite owned by Zhongguo Xingwang (CN) in LEO that was launched on Sat, 27 Sep 2025 UTC via a CHANG ZHENG 6A launch vehicle from the Taiyaun Space Center, China (TSC). Payload-class satellites include a variety of spacecraft equipped with specific instruments for various scientific and technological missions. These include communications satellites like Starlink; space stations such as the ISS; scientific satellites like the Hubble; Earth observation satellites from companies like Planet Labs, Umbra, and HawkEye 360; GPS; miniature CubeSats for education and research; and military/defense satellites.

Loading next visibility...
Identifier
65819, 2025-220C
Orbit
LEO
Country
Flag of CNCN / PRC
Related business
Manufacturer
SECM
Mission
Operational Civil Communications
Bus & Motor
XINGWANG S, Unknown motor
Mass
~800 kg wet, ~800 kg dry
Launch date (UTC)
2025-09-27 (9 months ago)
Launch vehicle
CHANG ZHENG 6A
Launch site
Taiyaun Space Center, China (TSC)
Object type
Payload
Rocket body
Debris
Shape & HBR
Box + 2 Pan, 1.1 m
Radar Cross Section
5.935 m², Large (>1 m²)

Expand to show TLE details & history
Last TLE update: 16 hours ago

TLE from 16 hours ago
0 HULIANWANG DIGUI-84
1 65819U 25220C   26171.17113149  .00000025  00000-0  24182-4 0  9992
2 65819  86.4927  42.7327 0001457  95.7124 264.4176 13.24408484 35317
Epoch: 2026-06-20T04:06Z
TLE epoch observation values (Epoch: 2026-06-20T04:06:25.760Z)
Latitude
-0.00005°
Longitude
72.73578°
Altitude
1,170.929 km
Speed
7.268 km/s
True Right ascension
02h 50m 55s
True Declination
0° 00' 00"
Sunlit
Object was in daylight at epoch
Visualization orbit readout
Latitude
Unknown
Longitude
Unknown
Altitude
Unknown
Speed
Unknown
Apparent Right ascension
Unknown
Apparent Declination
Unknown
Sunlit
N/A
Visualization observer readout
Local Sidereal Time
07:21:01
Azimuth
Unknown
Elevation
Unknown
Doppler factor
Unknown
Orbital elements
Apogee altitude
1,166.147 km
Perigee altitude
1,163.949 km
Semi-major axis
7,543.185 km
Eccentricity
0.00015
Inclination
86.4927°
RAAN
42.7327°
Arg. of periapsis
95.7124°
True anomaly
264.40098°
Mean anomaly
264.4176°
Eccentric anomaly
264.40929°
Mean motion
3.31292 °/min
Orbital period
108.67 mins
BSTAR
0.000024182
Loading maneuver chart data...
Computing Atmospheric mass density...
Loading historical data...
Loading historical data...
Loading historical data...
Loading historical data...
Loading historical data...
Loading historical data...
Loading historical data...

Documentation

Showing up to 5 results
|